ENKB

Kristiansund/Kvernberget

Airport
ICAO code
ENKB
Summary
ICAO Region
EUR
ICAO Territory
Location

Kristiansund, Norway,

Elevation
204 ft
Coordinates
63° 6' 42" N , 7° 49' 28" E
KCC
Metar
ENKB 201720Z AUTO 34007KT 290V020 9999 SCT017/// BKN028/// OVC049/// 05/01 Q1026 RMK WIND 745FT 35015KT

Description

Airport serving the communities around Kristiansand, Norway.

Climatology

Temperate Marine climate/Oceanic climate (Köppen climate classification Cfb). Moderately cool summer and comparatively warm winter with a temperature range of only 14°C. Prevailing south-westerly winds from the Atlantic Ocean.

Runways

Designator Length Width Surface Rops
7/25 1840 45 ASP Yes/Yes

Airport map

Aerial View

SKYbrary Partners:

Safety knowledge contributed by: